Theta_e
276 277 279 280 281 281 282 281 282 283 284 284 284 284 284 283 282 282 282 282 282 281 281 280 280 280 280 279 279 278 277 277
275 277 277 278 279 279 280 279 280 281 282 281 281 282 281 280 279 279 279 279 279 279 278 278 278 279 278 278 278 277 276 277
274 275 275 275 277 277 278 278 279 280 280 279 279 280 278 278 278 278 278 278 278 278 278 277 277 277 276 276 276 275 274 274
273 274 274 275 276 277 277 277 278 279 279 279 279 278 278 278 278 277 277 277 277 276 276 275 276 275 275 274 273 272 272 271
272 273 274 274 275 275 276 278 278 278 277 277 277 278 278 278 278 278 277 276 275 274 274 273 273 273 272 272 271 271 271 271
270 272 273 273 274 275 276 276 277 277 277 277 278 278 278 277 277 277 277 277 276 275 275 274 273 273 271 271 270 270 270 271
270 271 272 273 273 275 275 276 276 276 276 276 276 276 276 276 276 276 276 275 276 275 275 275 276 278 276 272 270 270 270 269
269 270 271 273 274 273 274 275 275 274 274 275 275 274 274 274 274 273 274 275 274 274 274 274 276 278 276 274 271 269 269 268
268 269 270 271 272 272 273 272 272 272 272 273 273 272 272 272 272 272 272 272 273 274 275 275 276 277 276 274 270 269 268 267
265 266 269 269 270 271 270 271 271 270 270 271 271 271 271 270 270 271 271 271 271 272 272 274 275 277 276 272 270 269 267 267
267 269 268 267 271 270 269 269 269 270 270 271 271 270 269 270 270 271 271 271 271 271 271 271 272 277 277 273 270 267 267 267
265 264 264 267 269 268 268 267 269 270 270 270 270 270 270 270 270 270 269 270 269 269 269 269 271 273 276 275 270 267 266 265
266 266 267 269 269 267 266 268 268 268 268 268 268 270 269 267 268 267 267 266 266 265 267 268 269 274 274 274 273 271 266 265
266 266 266 267 267 266 266 266 265 265 264 265 266 269 269 266 266 266 265 264 265 265 264 265 267 268 272 272 272 271 266 267
266 265 264 265 267 266 266 265 262 263 264 264 265 265 266 268 268 265 264 264 265 264 261 261 265 267 268 269 266 269 266 263
265 264 263 263 263 262 264 263 264 263 264 264 263 262 264 266 265 267 268 267 262 261 261 258 260 269 273 273 269 267 269 255
264 263 262 261 260 258 258 261 262 263 263 262 262 261 262 261 261 271 272 273 273 273 269 267 272 274 274 274 274 272 269 248
264 263 261 260 259 256 255 258 258 261 261 260 261 260 258 258 257 258 261 269 269 270 271 271 271 272 273 273 272 267 260 246
261 260 259 257 258 256 252 257 257 256 259 259 258 257 255 255 255 254 254 254 255 262 267 268 270 271 271 271 262 252 252 245
258 258 257 257 259 254 252 258 257 258 257 256 254 254 256 254 253 253 252 252 251 251 260 258 266 268 267 264 249 248 252 252
Wind_Speed
13 14 14 14 13 14 14 14 14 14 12 11 13 17 16 16 20 17 16 17 19 19 19 18 19 17 17 15 14 15 13 11
12 11 11 11 12 12 13 14 15 15 12 12 13 18 16 19 18 17 18 19 19 17 20 20 18 17 18 17 15 16 14 13
9 9 11 11 12 13 14 14 14 15 12 12 14 18 20 20 19 17 19 18 17 18 19 18 18 17 18 18 14 15 15 13
9 10 11 12 12 13 15 14 16 14 11 11 14 19 23 21 18 18 17 18 18 19 18 18 17 17 17 16 14 14 13 12
9 10 10 12 13 14 15 17 15 12 13 12 16 21 20 20 19 19 18 19 19 19 17 16 16 14 15 14 12 12 12 12
10 10 11 13 14 16 18 16 12 12 14 14 17 20 20 21 19 17 18 16 15 16 16 15 15 11 12 11 11 10 9 7
10 11 13 15 15 14 14 12 10 13 11 12 17 19 19 18 17 16 16 14 14 14 13 13 10 21 20 13 9 8 7 6
10 11 13 14 15 14 10 9 10 12 12 16 17 18 15 16 16 14 13 13 14 14 13 12 12 20 18 17 9 8 7 8
10 13 14 13 12 10 10 10 12 14 14 11 13 14 15 15 13 12 11 12 11 12 12 13 12 18 16 14 8 8 9 8
8 9 11 9 7 7 7 8 9 9 9 10 12 13 12 13 11 9 11 12 11 10 12 13 13 18 16 9 7 9 10 9
7 8 7 5 4 6 6 7 9 8 10 10 11 12 12 11 10 7 10 11 8 11 10 10 9 18 20 13 6 6 5 6
6 6 2 3 2 6 6 9 6 8 10 11 11 11 9 9 8 9 8 7 7 8 8 9 8 12 16 13 6 6 5 5
6 5 4 4 4 6 9 5 6 9 10 11 10 8 7 7 7 5 5 7 7 7 5 4 6 10 14 14 15 11 4 5
6 5 4 4 3 7 3 5 7 10 9 8 7 7 6 5 6 6 5 2 2 3 4 4 3 4 8 12 11 10 1 4
6 5 4 3 4 4 5 5 7 8 6 4 6 5 5 4 3 2 2 2 4 3 2 2 4 4 2 3 2 6 5 6
6 5 5 3 3 2 4 5 6 5 4 4 3 2 2 2 2 2 1 4 3 2 2 1 3 4 9 9 3 2 8 4
6 6 6 5 4 3 3 4 5 5 3 1 2 2 2 1 2 4 5 7 7 5 2 2 7 12 12 13 15 13 13 4
12 9 7 6 5 3 3 4 4 5 5 3 3 3 3 1 2 1 4 3 4 6 5 8 9 12 13 14 16 12 7 1
8 8 7 6 7 5 4 5 5 4 5 5 4 4 3 3 3 2 2 1 3 5 4 10 12 13 14 17 10 4 3 3
6 7 8 8 9 6 5 7 7 6 4 4 3 3 3 2 2 2 3 2 2 3 4 5 13 12 10 10 2 3 6 5
Wind_Direction
357 4 9 15 17 23 33 42 34 36 39 48 70 74 77 76 75 72 72 70 70 71 75 73 67 69 71 70 68 73 63 61
355 7 15 22 26 29 33 42 41 42 39 50 72 77 78 76 75 72 75 71 73 74 74 71 72 70 76 74 72 75 75 66
354 14 26 29 32 37 41 45 45 51 43 53 74 83 77 73 73 74 76 75 78 76 77 78 74 73 76 78 68 71 69 69
7 25 36 37 40 48 52 51 49 52 50 62 76 81 75 75 73 71 74 75 72 74 71 71 73 75 70 74 75 69 63 59
16 29 39 46 47 51 53 51 52 54 58 65 69 72 75 73 69 68 68 69 70 69 72 73 71 74 73 68 66 66 62 55
28 34 40 49 53 50 50 49 50 64 63 58 69 73 73 72 70 69 69 69 70 77 73 71 70 62 66 69 68 63 61 55
37 38 43 43 43 49 47 48 45 61 71 69 70 71 68 71 70 70 71 71 71 68 74 82 85 87 86 82 84 75 74 66
31 41 45 42 43 43 52 69 71 74 70 65 64 68 72 72 67 64 67 73 72 73 71 70 75 79 80 83 82 74 64 59
41 40 32 36 35 46 50 55 58 57 60 71 84 78 70 70 68 66 66 70 66 66 70 76 70 69 70 78 82 82 69 48
51 45 43 30 28 57 58 68 73 74 75 65 68 74 75 75 69 63 69 63 63 56 52 57 60 65 60 63 59 50 44 36
57 71 67 31 56 82 76 80 76 76 76 73 72 74 70 66 65 70 71 68 65 62 49 46 39 54 50 45 45 51 36 24
77 82 39 59 78 95 92 64 68 76 76 72 70 73 71 73 64 65 74 73 68 72 55 44 33 34 44 45 43 39 26 358
90 78 61 51 94 92 78 51 59 71 71 64 58 63 58 63 63 66 76 75 55 43 44 32 19 39 26 32 32 32 5 352
114 105 67 46 70 98 54 70 72 71 62 60 60 68 67 71 65 61 44 67 95 72 31 14 342 281 26 22 13 3 55 5
131 124 116 53 72 85 101 87 81 85 83 73 84 71 50 60 75 117 132 76 77 80 55 319 322 310 269 237 270 357 26 4
153 148 154 127 107 97 116 111 104 99 92 85 83 87 91 79 126 60 179 144 152 171 172 190 298 319 356 353 340 28 347 19
169 161 173 163 169 177 143 131 132 122 121 120 108 69 76 67 22 31 93 72 55 73 129 244 334 347 345 347 345 359 358 30
186 181 169 177 183 197 174 149 155 145 155 157 151 159 158 166 135 127 331 330 8 12 16 9 350 349 347 349 352 343 24 40
166 173 175 176 203 196 172 162 161 170 166 168 173 163 158 170 179 161 159 230 292 310 353 0 355 353 355 353 1 336 328 208
156 177 175 188 215 181 175 174 175 172 178 166 153 183 190 170 172 191 185 200 258 321 330 345 340 337 354 5 106 298 315 315